Location: Christchurch
(43.5330°S, 172.6330°E)
Time: 14:03:26
(UTC+12:00)

ISS - Visible Passes

Search period start: 01 July 2022 00:00
Search period end: 11 July 2022 00:00
Orbit: 414 x 420 km, 51.6° (Epoch: 30 June)

Date Brightness Start Highest point End Pass type
(mag) Time Alt. Az. Time Alt. Az. Time Alt. Az.
01 Jul -2.1 18:56:37 10° SW 18:58:46 25° S 18:58:46 25° S visible
02 Jul -2.3 18:08:25 10° SW 18:11:16 24° SSE 18:12:40 18° SE visible
02 Jul -0.8 19:45:03 10° SW 19:45:36 14° SW 19:45:36 14° SW visible
03 Jul -3.0 18:56:53 10° SW 18:59:35 41° S 18:59:35 41° S visible
04 Jul -2.9 18:08:43 10° SW 18:11:54 34° SSE 18:13:41 20° ESE visible
04 Jul -1.0 19:45:28 10° WSW 19:46:37 19° WSW 19:46:37 19° WSW visible
05 Jul -3.7 18:57:08 10° WSW 19:00:33 75° NW 19:00:53 66° NNE visible
06 Jul -3.8 18:08:53 10° SW 18:12:18 69° SSE 18:15:22 12° ENE visible
06 Jul -0.9 19:46:25 10° W 19:48:20 17° NW 19:48:20 17° NW visible
07 Jul -1.7 18:57:39 10° WSW 19:00:38 28° NW 19:03:08 13° NNE visible
08 Jul -2.7 18:09:09 10° WSW 18:12:27 47° NW 18:15:43 10° NE visible
09 Jul -0.3 18:59:34 10° WNW 19:00:26 11° NW 19:01:17 10° NW visible
10 Jul -0.7 18:09:56 10° W 18:12:20 18° NW 18:14:44 10° N visible
